THORAD AGENA D DEB, 4864

Orbit data source: Space-Track

THORAD AGENA D DEB, 4864 is space debris in SSO originally from a launch on Wed, 08 Apr 1970 UTC launched from the Air Force Western Test Range (AFWTR). Debris objects in space refer to the collection of defunct objects orbiting the Earth. Examples of debris include non-operational satellites, rocket bodies, and fragments generated from explosions, collisions, or faulty payload assembly.

Loading next visibility...
Identifier
4864, 1970-025EU
Orbit
SSO
Country
Flag of USUS
Related business
Manufacturer
Unknown
Mission
Spacecraft
Bus & Motor
Unknown
Mass
Unknown
Launch date (UTC)
1970-04-08 (56 years ago)
Launch vehicle
Unknown
Launch site
Air Force Western Test Range (AFWTR)
Object type
Payload
Rocket body
Debris
Shape & HBR
Unknown shape, 0.1 m
Radar Cross Section
Small (<0.1 m²)

Expand to show TLE details & history
Last TLE update: 14 hours ago

TLE from 14 hours ago
0 THORAD AGENA D DEB
1  4864U 70025EU  26124.82633677  .00000136  00000-0  28123-3 0  9992
2  4864  99.5195 241.9512 0045981 233.4880 255.8011 13.49518219755104
Epoch: 2026-05-04T19:49Z
TLE epoch observation values (Epoch: 2026-05-04T19:49:55.496Z)
Latitude
50.34611°
Longitude
-86.62815°
Altitude
1,090.528 km
Speed
7.308 km/s
True Right ascension
04h 54m 15s
True Declination
50° 11' 05"
Sunlit
Object was in daylight at epoch
Visualization orbit readout
Latitude
Unknown
Longitude
Unknown
Altitude
Unknown
Speed
Unknown
Apparent Right ascension
Unknown
Apparent Declination
Unknown
Sunlit
N/A
Visualization observer readout
Local Sidereal Time
18:04:52
Azimuth
Unknown
Elevation
Unknown
Doppler factor
Unknown
Orbital elements
Apogee altitude
1,105.578 km
Perigee altitude
1,037.071 km
Semi-major axis
7,449.461 km
Eccentricity
0.0046
Inclination
99.5195°
RAAN
241.9512°
Arg. of periapsis
233.488°
True anomaly
255.29102°
Mean anomaly
255.8011°
Eccentric anomaly
255.54599°
Mean motion
3.37564 °/min
Orbital period
106.65 mins
BSTAR
0.00028123
Loading maneuver chart data...
Computing Atmospheric mass density...

Documentation

Showing up to 5 results
|